YZ-1 R/B, 43248

Orbit data source: Space-Track

YZ-1 R/B, 43248 is space debris originally from a launch on Thu, 29 Mar 2018 UTC launched from the Xichang Space Center, China (XSC). Debris objects in space refer to the collection of defunct objects orbiting the Earth. Examples of debris include non-operational satellites, rocket bodies, and fragments generated from explosions, collisions, or faulty payload assembly.

Loading next visibility...
Identifier
43248, 2018-029D
Orbit
Active
Country
Flag of CNCN / PRC
Related business
Manufacturer
CALT
Mission
Spacecraft
Bus & Motor
YZ-1, Unknown motor
Mass
~2,075 kg wet, ~2,075 kg dry
Launch date (UTC)
2018-03-29 (8 years ago)
Launch vehicle
Unknown
Launch site
Xichang Space Center, China (XSC)
Object type
Payload
Rocket body
Debris
Shape & HBR
Double Cone, 2.0 m
Radar Cross Section
5.890 m², Large (>1 m²)

Expand to show TLE details & history
Last TLE update: 3 days ago

TLE from 3 days ago
0 YZ-1 R/B
1 43248U 18029D   26170.34906571 -.00000085  00000-0  00000-0 0  9996
2 43248  54.6658 310.5885 0101422  42.9336 317.8381  1.77724079 53388
Epoch: 2026-06-19T08:22Z
TLE epoch observation values (Epoch: 2026-06-19T08:22:39.277Z)
Latitude
0.00001°
Longitude
-82.67431°
Altitude
22,197.08 km
Speed
3.749 km/s
True Right ascension
20h 42m 16s
True Declination
0° 00' 00"
Sunlit
Object was in daylight at epoch
Visualization orbit readout
Latitude
Unknown
Longitude
Unknown
Altitude
Unknown
Speed
Unknown
Apparent Right ascension
Unknown
Apparent Declination
Unknown
Sunlit
N/A
Visualization observer readout
Local Sidereal Time
21:29:00
Azimuth
Unknown
Elevation
Unknown
Doppler factor
Unknown
Orbital elements
Apogee altitude
22,703.609 km
Perigee altitude
22,119.626 km
Semi-major axis
28,789.755 km
Eccentricity
0.01014
Inclination
54.6658°
RAAN
310.5885°
Arg. of periapsis
42.9336°
True anomaly
317.05062°
Mean anomaly
317.8381°
Eccentric anomaly
317.4451°
Mean motion
0.44431 °/min
Orbital period
810.24 mins
BSTAR
0
Loading maneuver chart data...
Computing Atmospheric mass density...
Loading historical data...
Loading historical data...
Loading historical data...
Loading historical data...
Loading historical data...
Loading historical data...
Loading historical data...
Other satellites on launch #29 in the year 2018 (2018-03-29 UTC)

Documentation

Showing up to 5 results
|